Location: Most
(50.5133°N, 13.6207°E)
Time: 11:22:43
(UTC+01:00)

ISS - Pass Details

Date: 28 March 2017
Orbit: 399 x 409 km, 51.6° (Epoch: 23 March)

Event Time Altitude Azimuth Distance (km) Brightness Sun altitude
Rises 20:57:10 0° 216° (SW) 2,303 0.2 -13.9°
Reaches altitude 10° 20:59:27 10° 203° (SSW) 1,450 -1.0 -14.3°
Enters shadow 21:01:53 25° 155° (SSE) 867 -2.6 -14.6°
